User: anonymous   Login
Location: Erlach
(47.0430°N, 7.0996°E)
Time: 11:03:08
(UTC+00:00)
Language:

STARLINK-1321 - Orbit

View from above orbital plane
View from above orbital plane
View from above satellite
View from above satellite

Ground track
Ground track

The orbit data is extracted from the following two-line orbital elements,

1 45573U 20025AU  20227.16667824 -.01058146  00000-0 -49899-1 0  9993
2 45573  53.0024 205.9378 0001321  62.8943 327.7550 15.22030772 18415
Epoch (UTC): 14 August 2020 04:00:01
Eccentricity: 0.0001321
inclination: 53.0024°
perigee height: 499 km
apogee height: 500 km
right ascension of ascending node: 205.9378°
argument of perigee: 62.8943°
revolutions per day: 15.22030772
mean anomaly at epoch: 327.7550°
orbit number at epoch: 1841

The dashed part of the orbit path shows where the satellite is in the earth's shadow,  

DLR